CW7615 Frigiliana ES current weather conditions

sailwx.info

Wind from 009 at 2 knots gusting 4

Air temperature 23.9° C
Dewpoint 18.5° C

Last reported at 2019-Jul-23 21:09 UTC.
Time now 2019-Jul-23 22:04 UTC

Location: N 36°47' W 003°54'.
View on Google Maps.

See reports from other nearby stations

  
Tides and Currents Weather Stations Pressure Air Temp Water Temp Dewpoint Dewpoint Depression Visibility Wind Speed Wind Dir Waves Ship Positions
date/time (UTC)wind fromknots sea level pressurealtimeterstation pressurevisibilityair tempwater tempwave heightnotes
2019-Jul-23 21:09 009 2 gusting 4 23.9
2019-Jul-23 21:04 127 23.9
2019-Jul-23 20:59 127 23.9
2019-Jul-23 20:55 127 23.9
2019-Jul-23 20:50 127 24.4
2019-Jul-23 20:44 127 24.4
2019-Jul-23 20:39 127 0 gusting 1 24.4
2019-Jul-23 20:34 127 24.4
2019-Jul-23 20:29 063 24.4
2019-Jul-23 20:24 063 24.4
2019-Jul-23 20:19 063 24.4
2019-Jul-23 20:15 063 1 gusting 3 24.4
2019-Jul-23 20:10 009 1 gusting 3 24.4
2019-Jul-23 20:05 153 25.0
2019-Jul-23 19:59 153 25.0
2019-Jul-23 19:54 153 25.0
2019-Jul-23 19:49 153 25.0
2019-Jul-23 19:44 153 25.0
2019-Jul-23 19:39 153 0 gusting 2 25.0
2019-Jul-23 19:35 153 25.0
2019-Jul-23 19:30 108 0 gusting 1 25.0
2019-Jul-23 19:24 108 0 gusting 1 25.0
2019-Jul-23 19:19 122 25.0
2019-Jul-23 19:14 122 25.0
2019-Jul-23 19:09 122 0 gusting 5 25.0
2019-Jul-23 19:04 120 2 gusting 7 25.6
2019-Jul-23 18:59 109 3 gusting 7 25.6
2019-Jul-23 18:54 115 5 gusting 6 25.6
2019-Jul-23 18:49 099 3 gusting 7 25.6
2019-Jul-23 18:45 094 5 gusting 7 25.6
2019-Jul-23 18:39 114 5 gusting 6 26.1
2019-Jul-23 18:34 118 3 gusting 6 26.1
2019-Jul-23 18:29 118 3 gusting 6 26.1
2019-Jul-23 18:24 109 3 gusting 6 26.7
2019-Jul-23 18:19 112 4 gusting 6 26.7
2019-Jul-23 18:14 135 3 gusting 6 26.7
2019-Jul-23 18:10 123 0 gusting 6 26.7
2019-Jul-23 18:05 124 3 gusting 6 27.2
2019-Jul-23 18:00 131 3 gusting 6 27.8
2019-Jul-23 17:54 126 2 gusting 6 28.3
2019-Jul-23 17:49 142 1 gusting 3 28.3
2019-Jul-23 17:44 120 1 gusting 6 28.3
2019-Jul-23 17:39 125 1 gusting 6 28.3
2019-Jul-23 17:34 117 0 gusting 6 28.3
2019-Jul-23 17:29 117 2 gusting 6 28.3
2019-Jul-23 17:24 128 2 gusting 6 28.3
2019-Jul-23 17:20 128 2 gusting 6 28.3
2019-Jul-23 17:14 130 2 gusting 6 28.3
2019-Jul-23 17:09 128 1 gusting 6 28.3
2019-Jul-23 17:04 130 1 gusting 6 28.9
2019-Jul-23 16:59 116 3 gusting 6 28.9
2019-Jul-23 16:54 153 3 gusting 6 28.9
2019-Jul-23 16:49 116 1 gusting 6 28.9
2019-Jul-23 16:44 129 3 gusting 6 28.9
2019-Jul-23 16:39 120 2 gusting 6 29.4
2019-Jul-23 16:35 123 1 gusting 6 29.4
2019-Jul-23 16:29 127 3 gusting 6 28.9
2019-Jul-23 16:24 113 3 gusting 6 28.9
2019-Jul-23 16:19 115 2 gusting 6 29.4
2019-Jul-23 16:14 121 3 gusting 6 29.4
2019-Jul-23 16:09 122 3 gusting 7 28.9
2019-Jul-23 16:04 125 5 gusting 7 28.9
2019-Jul-23 15:59 109 5 gusting 9 29.4
2019-Jul-23 15:54 106 6 gusting 9 29.4
2019-Jul-23 15:50 057 3 gusting 8 28.9
2019-Jul-23 15:44 124 5 gusting 8 28.9
2019-Jul-23 15:39 095 3 gusting 8 28.9
2019-Jul-23 15:34 126 6 gusting 9 28.9
2019-Jul-23 15:29 108 6 gusting 9 29.4
2019-Jul-23 15:24 096 5 gusting 7 29.4
2019-Jul-23 15:19 167 3 gusting 7 29.4
2019-Jul-23 15:15 115 5 gusting 7 30.0
2019-Jul-23 15:10 107 3 gusting 8 30.0
2019-Jul-23 15:05 127 3 gusting 8 30.0
2019-Jul-23 15:00 117 4 gusting 7 29.4
2019-Jul-23 14:54 035 2 gusting 9 29.4
2019-Jul-23 14:49 101 6 gusting 9 29.4
2019-Jul-23 14:44 114 6 gusting 9 30.0
2019-Jul-23 14:39 099 3 gusting 10 30.0
2019-Jul-23 14:34 120 3 gusting 10 30.0
2019-Jul-23 14:29 103 1 gusting 12 30.0
2019-Jul-23 14:25 092 5 gusting 13 29.4
2019-Jul-23 14:19 115 6 gusting 13 29.4
2019-Jul-23 14:14 113 7 gusting 13 30.0
2019-Jul-23 14:09 116 6 gusting 12 30.0
2019-Jul-23 14:04 094 6 gusting 13 30.0
2019-Jul-23 13:59 103 6 gusting 13 30.0
2019-Jul-23 13:54 088 5 gusting 10 30.0
2019-Jul-23 13:49 114 6 gusting 9 30.0
2019-Jul-23 13:44 119 4 gusting 8 30.0
2019-Jul-23 13:39 111 4 gusting 8 30.0
2019-Jul-23 13:35 123 2 gusting 11 30.6
2019-Jul-23 13:30 107 4 gusting 11 31.1
2019-Jul-23 13:24 090 3 gusting 8 30.6
2019-Jul-23 13:19 097 2 gusting 10 30.0
2019-Jul-23 13:14 109 5 gusting 11 29.4
2019-Jul-23 13:09 115 6 gusting 12 30.0
2019-Jul-23 13:04 128 6 gusting 12 30.0
2019-Jul-23 12:59 127 7 gusting 11 30.6
2019-Jul-23 12:54 122 6 gusting 11 30.6
2019-Jul-23 12:50 111 4 gusting 11 31.1
2019-Jul-23 12:45 146 5 gusting 9 31.1
2019-Jul-23 12:39 103 4 gusting 8 30.6
2019-Jul-23 12:34 103 4 gusting 8 30.6
2019-Jul-23 12:29 130 5 gusting 8 30.6
2019-Jul-23 12:24 150 5 gusting 8 30.6
2019-Jul-23 12:19 123 4 gusting 8 31.1
2019-Jul-23 12:14 097 4 gusting 8 31.1
2019-Jul-23 12:09 215 4 gusting 8 31.1
2019-Jul-23 12:04 128 4 gusting 8 31.1
2019-Jul-23 11:59 155 2 gusting 8 31.1
2019-Jul-23 11:55 130 2 gusting 9 31.1
2019-Jul-23 11:49 105 3 gusting 11 31.1
2019-Jul-23 11:44 184 6 gusting 11 31.1
2019-Jul-23 11:39 109 5 gusting 9 31.1
2019-Jul-23 11:34 101 4 gusting 8 30.6
2019-Jul-23 11:29 124 6 gusting 9 30.0
2019-Jul-23 11:24 101 6 gusting 9 30.0
2019-Jul-23 11:20 111 6 gusting 8 30.0
2019-Jul-23 11:15 111 5 gusting 7 29.4
2019-Jul-23 11:10 120 5 gusting 8 29.4
2019-Jul-23 11:05 121 4 gusting 10 30.0
2019-Jul-23 10:59 130 2 gusting 9 30.6
2019-Jul-23 10:54 103 6 gusting 10 30.6
2019-Jul-23 10:49 125 5 gusting 10 30.0
2019-Jul-23 10:44 109 6 gusting 9 30.0
2019-Jul-23 10:39 115 5 gusting 8 30.0
2019-Jul-23 10:34 126 4 gusting 9 30.0
2019-Jul-23 10:30 120 3 gusting 8 30.0
2019-Jul-23 10:24 142 6 gusting 11 30.0
2019-Jul-23 10:19 119 7 gusting 11 30.6
2019-Jul-23 10:14 118 6 gusting 9 30.6
2019-Jul-23 10:09 098 3 gusting 9 30.6
2019-Jul-23 10:04 103 3 gusting 9 30.6
2019-Jul-23 09:59 126 4 gusting 6 30.6
2019-Jul-23 09:54 109 3 gusting 6 30.0
2019-Jul-23 09:50 105 2 gusting 6 29.4
2019-Jul-23 09:45 105 2 gusting 7 29.4
2019-Jul-23 09:39 132 4 gusting 7 29.4
2019-Jul-23 09:34 116 4 gusting 6 28.9
2019-Jul-23 09:29 100 3 gusting 7 28.9
2019-Jul-23 09:24 100 4 gusting 7 28.3
2019-Jul-23 09:19 107 4 gusting 7 28.3
2019-Jul-23 09:14 133 5 gusting 7 28.3
2019-Jul-23 09:10 111 4 gusting 6 28.3
2019-Jul-23 09:04 117 3 gusting 6 27.8
2019-Jul-23 09:00 123 3 gusting 6 27.8
2019-Jul-23 08:54 119 3 gusting 7 27.8
2019-Jul-23 08:49 116 4 gusting 7 27.8
2019-Jul-23 08:44 124 4 gusting 6 28.3
2019-Jul-23 08:39 109 2 gusting 7 28.3
2019-Jul-23 08:34 111 4 gusting 7 28.3
2019-Jul-23 08:29 126 5 gusting 7 28.9
2019-Jul-23 08:24 107 3 gusting 6 28.3
2019-Jul-23 08:20 119 2 gusting 6 28.3
2019-Jul-23 08:14 119 3 gusting 6 28.9
2019-Jul-23 08:09 090 1 gusting 3 29.4
2019-Jul-23 08:04 042 0 gusting 2 29.4
2019-Jul-23 07:59 030 1 gusting 2 28.9
2019-Jul-23 07:54 026 0 gusting 1 28.9
2019-Jul-23 07:49 026 0 gusting 1 28.3
2019-Jul-23 07:44 026 28.3
2019-Jul-23 07:39 026 0 gusting 3 27.8
2019-Jul-23 07:35 026 0 gusting 3 27.8
2019-Jul-23 07:30 360 27.8
2019-Jul-23 07:24 360 0 gusting 1 27.8
2019-Jul-23 07:19 360 0 gusting 2 27.2
2019-Jul-23 07:14 360 27.2
2019-Jul-23 07:09 360 1 gusting 3 26.7
2019-Jul-23 07:04 360 2 gusting 3 26.1
2019-Jul-23 06:59 360 1 gusting 2 26.1
2019-Jul-23 06:54 360 1 gusting 2 25.6
2019-Jul-23 06:49 360 1 gusting 2 25.0
2019-Jul-23 06:45 360 1 gusting 3 25.0
2019-Jul-23 06:39 347 1 gusting 3 24.4
2019-Jul-23 06:34 347 1 gusting 3 24.4
2019-Jul-23 06:29 342 1 gusting 4 23.9
2019-Jul-23 06:24 331 2 gusting 6 23.9
2019-Jul-23 06:19 355 3 gusting 6 23.3
2019-Jul-23 06:14 346 4 gusting 6 23.3
2019-Jul-23 06:09 009 2 gusting 4 23.3
2019-Jul-23 06:04 026 3 gusting 6 23.3
2019-Jul-23 06:00 355 3 gusting 7 22.8
2019-Jul-23 05:55 005 6 gusting 7 22.8
2019-Jul-23 05:49 355 3 gusting 7 22.8
2019-Jul-23 05:44 350 4 gusting 6 22.8
2019-Jul-23 05:39 355 2 gusting 5 22.8
2019-Jul-23 05:35 360 2 gusting 5 22.2
2019-Jul-23 05:29 355 1 gusting 5 22.2
2019-Jul-23 05:24 350 2 gusting 5 22.2
2019-Jul-23 05:19 355 2 gusting 4 22.2
2019-Jul-23 05:14 329 1 gusting 5 22.2
2019-Jul-23 05:09 014 2 gusting 6 22.8
2019-Jul-23 05:04 355 2 gusting 4 22.8
2019-Jul-23 04:59 343 22.8
2019-Jul-23 04:54 343 22.8
2019-Jul-23 04:50 343 0 gusting 4 22.8
2019-Jul-23 04:45 343 1 gusting 4 22.8
2019-Jul-23 04:39 355 2 gusting 6 22.8
2019-Jul-23 04:34 338 3 gusting 6 22.8
2019-Jul-23 04:29 348 4 gusting 6 22.8
2019-Jul-23 04:24 360 0 gusting 5 22.8
2019-Jul-23 04:19 355 0 gusting 2 22.8
2019-Jul-23 04:15 355 1 gusting 3 22.8
2019-Jul-23 04:10 355 2 gusting 3 23.3
2019-Jul-23 04:05 350 0 gusting 3 23.3
2019-Jul-23 04:00 360 1 gusting 3 23.3
2019-Jul-23 03:54 355 0 gusting 3 23.3
2019-Jul-23 03:49 355 2 gusting 3 23.3
2019-Jul-23 03:44 355 0 gusting 3 23.3
2019-Jul-23 03:39 355 2 gusting 4 23.3
2019-Jul-23 03:34 349 2 gusting 5 23.9
2019-Jul-23 03:29 342 2 gusting 5 23.9
2019-Jul-23 03:25 348 3 gusting 5 23.9
2019-Jul-23 03:20 345 3 gusting 4 23.9
2019-Jul-23 03:14 355 0 gusting 4 23.9
2019-Jul-23 03:09 355 2 gusting 4 23.9
2019-Jul-23 03:04 355 1 gusting 3 23.9
2019-Jul-23 02:59 355 1 gusting 3 23.9
2019-Jul-23 02:54 355 2 gusting 3 23.9
2019-Jul-23 02:49 355 2 gusting 3 23.9
2019-Jul-23 02:44 355 0 gusting 5 23.9
2019-Jul-23 02:39 355 1 gusting 5 23.9
2019-Jul-23 02:35 005 3 gusting 4 23.9
2019-Jul-23 02:29 015 1 gusting 5 23.9
2019-Jul-23 02:24 338 1 gusting 9 23.9
2019-Jul-23 02:19 011 2 gusting 9 23.9
2019-Jul-23 02:14 016 3 gusting 8 23.3
2019-Jul-23 02:09 019 3 gusting 8 23.3
2019-Jul-23 02:04 360 4 gusting 6 23.3
2019-Jul-23 01:59 349 3 gusting 5 23.3
2019-Jul-23 01:54 355 1 gusting 3 23.3
2019-Jul-23 01:50 018 23.3
2019-Jul-23 01:45 018 0 gusting 2 23.3
2019-Jul-23 01:39 018 0 gusting 2 23.3
2019-Jul-23 01:34 017 0 gusting 8 23.3
2019-Jul-23 01:29 026 4 gusting 8 23.3
2019-Jul-23 01:24 018 4 gusting 8 23.3
2019-Jul-23 01:19 022 5 gusting 8 23.3
2019-Jul-23 01:14 019 3 gusting 7 23.3
2019-Jul-23 01:09 360 3 gusting 6 23.3
2019-Jul-23 01:04 019 2 gusting 4 23.3
2019-Jul-23 01:00 053 23.3
2019-Jul-23 00:55 053 0 gusting 6 23.9
2019-Jul-23 00:49 070 2 gusting 7 23.9
2019-Jul-23 00:44 103 3 gusting 7 24.4
2019-Jul-23 00:39 110 2 gusting 6 25.0
2019-Jul-23 00:34 159 1 gusting 6 25.0
2019-Jul-23 00:29 202 1 gusting 3 25.0
2019-Jul-23 00:24 221 0 gusting 2 25.0
2019-Jul-23 00:20 195 0 gusting 4 25.0
2019-Jul-23 00:14 195 0 gusting 4 25.0
2019-Jul-23 00:09 229 1 gusting 6 25.0
2019-Jul-23 00:04 242 2 gusting 9 25.0
2019-Jul-22 23:59 270 1 gusting 13 24.4
2019-Jul-22 23:54 355 2 gusting 10 23.3
2019-Jul-22 23:49 342 5 gusting 7 23.3
2019-Jul-22 23:44 360 3 gusting 5 23.3
2019-Jul-22 23:40 234 3 gusting 10 23.3
2019-Jul-22 23:35 348 2 gusting 12 23.3
2019-Jul-22 23:29 005 5 gusting 9 23.3
2019-Jul-22 23:24 168 2 gusting 6 23.3
2019-Jul-22 23:19 192 2 gusting 5 23.3
2019-Jul-22 23:14 360 23.3
2019-Jul-22 23:09 040 1 gusting 5 23.3
2019-Jul-22 23:04 029 3 gusting 5 23.3
2019-Jul-22 22:59 149 23.3
2019-Jul-22 22:55 149 23.3
2019-Jul-22 22:50 149 23.3
2019-Jul-22 22:44 149 23.9
2019-Jul-22 22:39 149 23.9
2019-Jul-22 22:34 149 23.9
2019-Jul-22 22:29 149 23.9
2019-Jul-22 22:24 149 23.9
2019-Jul-22 22:19 149 0 gusting 2 23.9
2019-Jul-22 22:15 182 23.9
2019-Jul-22 22:10 184 23.9
2019-Jul-22 22:05 184 23.9
2019-Jul-22 21:59 184 23.9
2019-Jul-22 21:54 184 24.4
2019-Jul-22 21:49 184 24.4
2019-Jul-22 21:44 184 24.4
2019-Jul-22 21:39 184 24.4
2019-Jul-22 21:34 184 24.4
2019-Jul-22 21:30 184 24.4
2019-Jul-22 21:24 184 0 gusting 2 24.4
2019-Jul-22 21:19 184 0 gusting 2 24.4
2019-Jul-22 21:14 194 24.4
2019-Jul-22 21:09 194 0 gusting 2 24.4
2019-Jul-22 21:04 195 24.4
2019-Jul-22 20:59 196 24.4
2019-Jul-22 20:54 140 2 gusting 4 24.4
2019-Jul-22 20:49 160 24.4
2019-Jul-22 20:44 160 24.4
2019-Jul-22 20:39 160 24.4
2019-Jul-22 20:35 160 0 gusting 2 24.4
2019-Jul-22 20:30 136 0 gusting 2 24.4
2019-Jul-22 20:24 136 0 gusting 2 24.4
2019-Jul-22 20:19 164 24.4
2019-Jul-22 20:14 164 24.4
2019-Jul-22 20:09 161 24.4
2019-Jul-22 20:04 161 24.4
2019-Jul-22 19:59 161 24.4
2019-Jul-22 19:54 161 24.4
2019-Jul-22 19:49 161 0 gusting 1 24.4
2019-Jul-22 19:45 161 24.4
2019-Jul-22 19:40 149 24.4
2019-Jul-22 19:34 149 24.4
2019-Jul-22 19:29 149 0 gusting 2 24.4
2019-Jul-22 19:24 205 1 gusting 2 24.4
2019-Jul-22 19:19 177 1 gusting 2 24.4
2019-Jul-22 19:14 115 24.4
2019-Jul-22 19:10 115 2 gusting 5 24.4
2019-Jul-22 19:04 115 1 gusting 5 24.4
2019-Jul-22 19:00 112 0 gusting 5 24.4
2019-Jul-22 18:54 133 1 gusting 5 24.4
2019-Jul-22 18:49 129 2 gusting 5 24.4
2019-Jul-22 18:44 122 2 gusting 4 24.4
2019-Jul-22 18:39 133 2 gusting 4 24.4
2019-Jul-22 18:34 133 0 gusting 6 24.4
2019-Jul-22 18:29 114 3 gusting 6 24.4
2019-Jul-22 18:24 108 2 gusting 6 24.4
2019-Jul-22 18:20 091 2 gusting 6 25.0
2019-Jul-22 18:15 117 3 gusting 5 25.0
2019-Jul-22 18:09 120 3 gusting 7 25.0
2019-Jul-22 18:04 103 3 gusting 7 25.0
2019-Jul-22 17:59 122 1 gusting 6 25.6
2019-Jul-22 17:54 113 3 gusting 6 25.6
2019-Jul-22 17:49 115 4 gusting 7 25.6
2019-Jul-22 17:44 128 3 gusting 7 26.1
2019-Jul-22 17:39 121 2 gusting 6 26.1
2019-Jul-22 17:35 116 1 gusting 6 26.1
2019-Jul-22 17:30 119 3 gusting 6 26.1
2019-Jul-22 17:24 104 2 gusting 6 26.7
2019-Jul-22 17:19 133 3 gusting 6 26.7
2019-Jul-22 17:14 159 1 gusting 6 26.7
2019-Jul-22 17:09 114 3 gusting 5 26.7
2019-Jul-22 17:04 118 2 gusting 5 26.7
2019-Jul-22 16:59 118 1 gusting 6 26.7
2019-Jul-22 16:54 118 3 gusting 6 26.7
2019-Jul-22 16:49 116 3 gusting 6 26.7
2019-Jul-22 16:45 121 1 gusting 6 26.7
2019-Jul-22 16:40 123 2 gusting 6 26.7
2019-Jul-22 16:34 110 3 gusting 7 26.7
2019-Jul-22 16:29 121 5 gusting 8 26.7
2019-Jul-22 16:24 098 4 gusting 8 27.2
2019-Jul-22 16:19 096 2 gusting 7 26.7
2019-Jul-22 16:14 119 4 gusting 8 26.7
2019-Jul-22 16:09 134 2 gusting 8 27.2
2019-Jul-22 16:04 119 6 gusting 8 27.8
2019-Jul-22 15:59 107 4 gusting 7 27.8
2019-Jul-22 15:55 102 5 gusting 7 27.8
2019-Jul-22 15:50 095 4 gusting 8 27.8
2019-Jul-22 15:44 119 5 gusting 8 27.8
2019-Jul-22 15:39 123 3 gusting 6 28.3
2019-Jul-22 15:34 117 3 gusting 9 27.8
2019-Jul-22 15:29 099 4 gusting 9 27.8
2019-Jul-22 15:24 103 4 gusting 8 27.8
2019-Jul-22 15:19 094 4 gusting 8 27.8
2019-Jul-22 15:14 119 2 gusting 8 27.8
2019-Jul-22 15:10 138 4 gusting 9 28.3
2019-Jul-22 15:04 120 2 gusting 9 27.8
2019-Jul-22 15:00 136 4 gusting 9 27.8
2019-Jul-22 14:55 129 5 gusting 9 28.3
2019-Jul-22 14:49 107 4 gusting 7 28.3
2019-Jul-22 14:44 103 4 gusting 7 28.3
2019-Jul-22 14:39 186 2 gusting 7 28.3
2019-Jul-22 14:34 132 1 gusting 8 27.8
2019-Jul-22 14:29 140 3 gusting 8 27.8
2019-Jul-22 14:25 098 5 gusting 8 27.8
2019-Jul-22 14:20 132 6 gusting 8 27.8
2019-Jul-22 14:14 130 3 gusting 8 27.8
2019-Jul-22 14:09 126 3 gusting 10 27.8
2019-Jul-22 14:04 121 3 gusting 8 28.3
2019-Jul-22 13:59 115 2 gusting 8 28.3
2019-Jul-22 13:54 101 3 gusting 9 28.3
2019-Jul-22 13:49 137 2 gusting 9 28.3
2019-Jul-22 13:44 118 6 gusting 10 28.3
2019-Jul-22 13:39 094 3 gusting 10 28.3
2019-Jul-22 13:35 154 4 gusting 9 28.3
2019-Jul-22 13:29 117 4 gusting 8 28.3
2019-Jul-22 13:24 096 6 gusting 8 28.3
2019-Jul-22 13:19 136 3 gusting 11 27.8
2019-Jul-22 13:14 119 6 gusting 11 28.3
2019-Jul-22 13:09 120 5 gusting 9 28.3
2019-Jul-22 13:04 115 3 gusting 9 27.8
2019-Jul-22 12:59 106 6 gusting 9 27.8
2019-Jul-22 12:54 115 2 gusting 9 27.8
2019-Jul-22 12:50 136 3 gusting 10 27.8
2019-Jul-22 12:45 157 6 gusting 10 27.8
2019-Jul-22 12:39 109 6 gusting 10 28.3
2019-Jul-22 12:34 107 4 gusting 10 28.9
2019-Jul-22 12:29 151 3 gusting 8 28.3
2019-Jul-22 12:24 111 4 gusting 8 28.3
2019-Jul-22 12:19 106 2 gusting 10 28.3
2019-Jul-22 12:14 129 4 gusting 10 28.9
2019-Jul-22 12:10 094 4 gusting 8 28.9
2019-Jul-22 12:05 175 1 gusting 10 28.3
2019-Jul-22 12:00 086 4 gusting 8 28.3
2019-Jul-22 11:54 126 1 gusting 11 27.8
2019-Jul-22 11:49 112 6 gusting 13 27.8
2019-Jul-22 11:44 084 5 gusting 12 27.8
2019-Jul-22 11:39 114 6 gusting 12 28.3
2019-Jul-22 11:34 100 5 gusting 12 27.8
2019-Jul-22 11:29 117 6 gusting 12 28.3
2019-Jul-22 11:25 139 6 gusting 9 28.3
2019-Jul-22 11:20 111 4 gusting 9 28.3
2019-Jul-22 11:14 235 3 gusting 10 28.3
2019-Jul-22 11:09 155 6 gusting 11 28.3
2019-Jul-22 11:05 174 3 gusting 11 28.3
2019-Jul-22 11:00 089 3 gusting 11 28.3
2019-Jul-22 10:54 161 4 gusting 10 28.3
2019-Jul-22 10:49 150 5 gusting 12 28.3
2019-Jul-22 10:44 153 5 gusting 12 28.3
2019-Jul-22 10:39 099 5 gusting 11 27.8
2019-Jul-22 10:34 192 3 gusting 11 27.8
2019-Jul-22 10:29 150 5 gusting 11 27.8
2019-Jul-22 10:25 121 6 gusting 10 27.8
2019-Jul-22 10:20 113 5 gusting 10 27.8
2019-Jul-22 10:14 119 5 gusting 9 28.3
2019-Jul-22 10:09 126 2 gusting 6 27.8
2019-Jul-22 10:04 115 3 gusting 9 27.8
2019-Jul-22 09:59 063 5 gusting 9 27.2
2019-Jul-22 09:54 123 3 gusting 10 27.2
2019-Jul-22 09:49 146 5 gusting 10 27.8
2019-Jul-22 09:44 157 5 gusting 8 27.8
2019-Jul-22 09:39 089 2 gusting 8 27.2
2019-Jul-22 09:35 080 2 gusting 7 27.2
2019-Jul-22 09:29 140 2 gusting 7 26.7
2019-Jul-22 09:24 130 0 gusting 6 26.7
2019-Jul-22 09:19 123 3 gusting 6 26.7
2019-Jul-22 09:14 131 3 gusting 8 26.7
2019-Jul-22 09:09 177 1 gusting 8 26.7
2019-Jul-22 09:04 103 3 gusting 6 26.7
2019-Jul-22 08:59 121 2 gusting 6 26.7
2019-Jul-22 08:54 120 3 gusting 6 26.7
2019-Jul-22 08:49 117 2 gusting 6 26.1
2019-Jul-22 08:45 114 3 gusting 6 26.1
2019-Jul-22 08:39 090 3 gusting 6 26.1
2019-Jul-22 08:34 122 4 gusting 8 26.1
2019-Jul-22 08:29 121 4 gusting 8 26.1
2019-Jul-22 08:24 116 4 gusting 7 26.1
2019-Jul-22 08:19 115 3 gusting 7 26.1
2019-Jul-22 08:14 115 3 gusting 6 26.1
2019-Jul-22 08:10 121 3 gusting 6 26.7
2019-Jul-22 08:04 120 2 gusting 6 26.7
2019-Jul-22 08:00 083 2 gusting 5 26.7
2019-Jul-22 07:55 111 1 gusting 2 26.7
2019-Jul-22 07:49 111 0 gusting 2 26.1
2019-Jul-22 07:44 111 1 gusting 2 26.1
2019-Jul-22 07:39 111 1 gusting 2 26.1
2019-Jul-22 07:34 111 25.6
2019-Jul-22 07:29 111 25.6
2019-Jul-22 07:25 111 25.6
2019-Jul-22 07:20 111 25.0
2019-Jul-22 07:14 111 25.0
2019-Jul-22 07:09 111 24.4
2019-Jul-22 07:04 111 1 gusting 3 24.4
2019-Jul-22 06:59 111 0 gusting 2 24.4
2019-Jul-22 06:54 111 0 gusting 2 23.9
2019-Jul-22 06:49 111 1 gusting 2 23.9
2019-Jul-22 06:44 111 0 gusting 3 23.9
2019-Jul-22 06:39 111 1 gusting 3 23.9
2019-Jul-22 06:35 111 1 gusting 2 23.3
2019-Jul-22 06:30 111 0 gusting 3 23.3
2019-Jul-22 06:24 111 2 gusting 3 23.3
2019-Jul-22 06:19 342 23.3
2019-Jul-22 06:14 342 23.3
2019-Jul-22 06:09 342 0 gusting 3 23.3
2019-Jul-22 06:04 340 2 gusting 4 22.8
2019-Jul-22 05:59 355 2 gusting 4 22.8
2019-Jul-22 05:54 005 0 gusting 2 22.8
2019-Jul-22 05:50 005 0 gusting 3 22.8
2019-Jul-22 05:45 348 2 gusting 3 22.2
2019-Jul-22 05:39 011 22.2
2019-Jul-22 05:34 011 22.2
2019-Jul-22 05:29 011 22.2
2019-Jul-22 05:24 011 0 gusting 4 22.2
2019-Jul-22 05:19 011 0 gusting 4 22.2
2019-Jul-22 05:14 005 2 gusting 3 22.2
2019-Jul-22 05:10 355 1 gusting 3 22.2
2019-Jul-22 05:05 355 2 gusting 4 22.2
2019-Jul-22 05:00 015 2 gusting 4 22.2
2019-Jul-22 04:54 360 1 gusting 2 22.2
2019-Jul-22 04:49 360 0 gusting 2 22.2
2019-Jul-22 04:44 360 1 gusting 3 22.2
2019-Jul-22 04:39 360 2 gusting 3 22.2
2019-Jul-22 04:34 013 1 gusting 2 22.2
2019-Jul-22 04:29 013 1 gusting 4 22.2
2019-Jul-22 04:25 014 1 gusting 4 22.2
2019-Jul-22 04:20 024 0 gusting 2 22.2
2019-Jul-22 04:14 027 22.2
2019-Jul-22 04:09 027 22.2
2019-Jul-22 04:04 027 22.2
2019-Jul-22 03:59 027 22.2
2019-Jul-22 03:54 027 22.2
2019-Jul-22 03:49 027 22.2
2019-Jul-22 03:44 027 22.2
2019-Jul-22 03:39 027 22.8
2019-Jul-22 03:35 005 22.2
2019-Jul-22 03:29 005 22.8
2019-Jul-22 03:24 005 22.8
2019-Jul-22 03:19 005 22.8
2019-Jul-22 03:14 005 22.8
2019-Jul-22 03:09 005 22.8
2019-Jul-22 03:04 005 0 gusting 3 22.8
2019-Jul-22 02:59 005 1 gusting 4 22.8
2019-Jul-22 02:55 360 2 gusting 4 22.8
2019-Jul-22 02:50 221 22.8
2019-Jul-22 02:44 215 22.8
2019-Jul-22 02:39 215 22.8
2019-Jul-22 02:34 215 22.8
2019-Jul-22 02:29 215 22.8
2019-Jul-22 02:24 215 22.8
2019-Jul-22 02:19 215 22.8
2019-Jul-22 02:15 215 22.8
2019-Jul-22 02:10 215 22.8
2019-Jul-22 02:05 215 22.8
2019-Jul-22 01:59 215 22.8
2019-Jul-22 01:54 215 22.8
2019-Jul-22 01:49 215 22.8
2019-Jul-22 01:44 215 22.8
2019-Jul-22 01:39 215 22.8
2019-Jul-22 01:34 215 23.3
2019-Jul-22 01:30 215 0 gusting 3 23.3
2019-Jul-22 01:25 215 1 gusting 4 23.3
2019-Jul-22 01:19 120 1 gusting 3 23.3
2019-Jul-22 01:14 112 23.3
2019-Jul-22 01:09 112 23.3
2019-Jul-22 01:04 112 23.9
2019-Jul-22 00:59 112 23.9
2019-Jul-22 00:54 112 23.9
2019-Jul-22 00:49 112 0 gusting 2 23.9
2019-Jul-22 00:44 112 24.4
2019-Jul-22 00:39 112 24.4
2019-Jul-22 00:35 112 0 gusting 1 24.4
2019-Jul-22 00:30 112 0 gusting 1 24.4
2019-Jul-22 00:24 112 24.4
2019-Jul-22 00:19 112 0 gusting 3 24.4
2019-Jul-22 00:14 112 0 gusting 1 24.4
2019-Jul-22 00:09 112 24.4
2019-Jul-22 00:04 112 24.4
2019-Jul-21 23:59 112 24.4
2019-Jul-21 23:54 112 24.4
2019-Jul-21 23:49 112 24.4
2019-Jul-21 23:45 112 24.4
2019-Jul-21 23:40 112 0 gusting 2 24.4
2019-Jul-21 23:34 112 0 gusting 3 24.4
2019-Jul-21 23:29 112 0 gusting 1 25.0
2019-Jul-21 23:24 112 25.0
2019-Jul-21 23:19 112 0 gusting 2 25.0
2019-Jul-21 23:14 112 0 gusting 5 25.0
2019-Jul-21 23:10 109 1 gusting 6 25.0
2019-Jul-21 23:04 110 2 gusting 7 25.0
2019-Jul-21 23:00 121 4 gusting 7 25.6
2019-Jul-21 22:54 014 3 gusting 7 25.0
2019-Jul-21 22:49 011 4 gusting 9 25.0
2019-Jul-21 22:44 299 3 gusting 9 25.0
2019-Jul-21 22:39 310 4 gusting 8 24.4
2019-Jul-21 22:34 344 1 gusting 4 24.4
2019-Jul-21 22:29 355 2 gusting 4 24.4
2019-Jul-21 22:25 351 2 gusting 5 24.4
2019-Jul-21 22:20 355 2 gusting 5 24.4
2019-Jul-21 22:14 360 2 gusting 4 24.4
2019-Jul-21 22:09 005 0 gusting 3 24.4
2019-Jul-21 22:04 005 1 gusting 3 24.4